| time (UTC) | temp F | wind direction | speed knots | gust knots | rain 1hr in | rain 24hr in | rain mn in | humidity % | barometer mb |
| 20260507074541 | 55 | 274 | 0.9 | 3.5 | 0.00 | 0.00 | 0.00 | 84 | 1007.1 |
| 20260507073038 | 55 | 229 | 0.0 | 3.5 | 0.00 | 0.00 | 0.00 | 84 | 1007.2 |
| 20260507071559 | 56 | 157 | 0.9 | 3.5 | 0.00 | 0.00 | 0.00 | 84 | 1006.4 |
| 20260507070035 | 56 | 293 | 0.0 | 1.7 | 0.00 | 0.00 | 0.00 | 84 | 1006.7 |
| 20260507064533 | 56 | 330 | 0.0 | 1.7 | 0.00 | 0.00 | 0.00 | 84 | 1006.7 |
| 20260507063034 | 57 | 214 | 0.0 | 4.3 | 0.00 | 0.00 | 0.00 | 84 | 1006.7 |
| 20260507061530 | 57 | 302 | 0.0 | 1.7 | 0.00 | 0.00 | 0.00 | 84 | 1006.5 |
| 20260507060037 | 58 | 214 | 0.0 | 1.7 | 0.00 | 0.00 | 0.00 | 85 | 1006.7 |
| 20260507054526 | 58 | 228 | 0.9 | 3.5 | 0.00 | 0.00 | 0.00 | 85 | 1006.8 |
| 20260507053025 | 59 | 203 | 0.0 | 2.6 | 0.00 | 0.00 | 0.00 | 85 | 1007.0 |
| 20260507051529 | 59 | 283 | 0.0 | 5.2 | 0.00 | 0.00 | 0.00 | 85 | 1006.6 |
| 20260507050022 | 59 | 151 | 0.0 | 4.3 | 0.00 | 0.00 | 0.00 | 85 | 1006.6 |
| 20260507044521 | 60 | 210 | 0.9 | 3.5 | 0.00 | 0.00 | 0.00 | 86 | 1006.7 |
| 20260507043016 | 60 | 268 | 1.7 | 5.2 | 0.00 | 0.00 | 0.00 | 85 | 1006.5 |
| 20260507041514 | 60 | 224 | 0.0 | 4.3 | 0.00 | 0.00 | 0.00 | 84 | 1006.6 |
| 20260507040011 | 60 | 252 | 0.9 | 2.6 | 0.00 | 0.00 | 0.00 | 84 | 1006.8 |
| 20260507034526 | 60 | 205 | 0.0 | 4.3 | 0.00 | 0.00 | 0.00 | 84 | 1006.7 |
| 20260507033015 | 60 | 224 | 1.7 | 6.1 | 0.00 | 0.00 | 0.00 | 85 | 1006.4 |
| 20260507031509 | 60 | 166 | 2.6 | 7.8 | 0.00 | 0.00 | 0.00 | 85 | 1006.2 |
| 20260507030008 | 60 | 234 | 0.9 | 3.5 | 0.00 | 0.00 | 0.00 | 85 | 1006.2 |
| 20260507024508 | 60 | 224 | 1.7 | 5.2 | 0.00 | 0.00 | 0.00 | 85 | 1006.1 |
| 20260507023016 | 60 | 218 | 3.5 | 7.8 | 0.00 | 0.00 | 0.00 | 84 | 1006.3 |
| 20260507021507 | 60 | 283 | 2.6 | 7.0 | 0.00 | 0.00 | 0.00 | 84 | 1006.2 |
| 20260507020006 | 60 | 227 | 2.6 | 5.2 | 0.00 | 0.00 | 0.00 | 84 | 1006.1 |
| 20260507014510 | 60 | 272 | 1.7 | 7.8 | 0.00 | 0.00 | 0.00 | 84 | 1006.2 |
| 20260507013003 | 59 | 285 | 1.7 | 7.0 | 0.00 | 0.00 | 0.00 | 84 | 1006.2 |
| 20260507011505 | 59 | 212 | 2.6 | 6.1 | 0.00 | 0.00 | 0.00 | 84 | 1006.6 |
| 20260507010003 | 59 | 195 | 0.0 | 7.0 | 0.00 | 0.00 | 0.00 | 84 | 1006.7 |
| 20260507004502 | 59 | 176 | 1.7 | 9.6 | 0.00 | 0.00 | 0.00 | 84 | 1006.7 |
| 20260507003002 | 59 | 231 | 1.7 | 5.2 | 0.00 | 0.00 | 0.00 | 84 | 1006.6 |
| 20260507001602 | 59 | 225 | 0.9 | 5.2 | 0.00 | 0.00 | 0.00 | 84 | 1006.5 |
| 20260507000059 | 59 | 296 | 2.6 | 6.1 | 0.00 | 0.00 | 0.00 | 84 | 1006.2 |
| 20260506234556 | 60 | 250 | 0.9 | 7.0 | 0.00 | 0.00 | 0.00 | 84 | 1006.3 |
| 20260506233058 | 60 | 225 | 1.7 | 5.2 | 0.00 | 0.00 | 0.00 | 84 | 1006.2 |
| 20260506231553 | 60 | 218 | 0.0 | 8.7 | 0.00 | 0.00 | 0.00 | 85 | 1006.1 |
| 20260506230051 | 61 | 273 | 0.0 | 4.3 | 0.00 | 0.00 | 0.00 | 85 | 1006.3 |
| 20260506224550 | 61 | 186 | 0.0 | 6.1 | 0.00 | 0.00 | 0.00 | 85 | 1006.3 |
| 20260506223048 | 61 | 264 | 0.0 | 6.1 | 0.00 | 0.00 | 0.00 | 84 | 1006.2 |
| 20260506221546 | 61 | 261 | 0.9 | 7.0 | 0.00 | 0.00 | 0.00 | 84 | 1006.7 |
| 20260506220048 | 62 | 247 | 1.7 | 7.8 | 0.00 | 0.00 | 0.00 | 85 | 1006.7 |
| 20260506214550 | 62 | 222 | 0.9 | 9.6 | 0.00 | 0.00 | 0.00 | 84 | 1007.0 |
| 20260506213042 | 63 | 292 | 2.6 | 8.7 | 0.00 | 0.00 | 0.00 | 84 | 1007.1 |
| 20260506211540 | 63 | 234 | 1.7 | 7.0 | 0.00 | 0.00 | 0.00 | 84 | 1007.0 |
| 20260506210041 | 62 | 235 | 3.5 | 7.8 | 0.00 | 0.00 | 0.00 | 83 | 1007.0 |
| 20260506204548 | 63 | 195 | 1.7 | 10.4 | 0.00 | 0.00 | 0.00 | 83 | 1007.3 |
| 20260506203037 | 63 | 238 | 2.6 | 10.4 | 0.00 | 0.00 | 0.00 | 81 | 1007.3 |
| 20260506201537 | 64 | 30 | 0.9 | 7.8 | 0.00 | 0.00 | 0.00 | 81 | 1007.2 |
| 20260506200036 | 64 | 238 | 0.0 | 9.6 | 0.00 | 0.00 | 0.00 | 81 | 1007.0 |
| 20260506194535 | 65 | 278 | 0.9 | 4.3 | 0.00 | 0.00 | 0.00 | 79 | 1007.3 |
| 20260506193034 | 66 | 333 | 0.0 | 3.5 | 0.00 | 0.00 | 0.00 | 77 | 1007.5 |
| 20260506191534 | 67 | 274 | 0.9 | 6.1 | 0.00 | 0.00 | 0.00 | 72 | 1007.3 |
| 20260506190034 | 69 | 297 | 0.9 | 3.5 | 0.00 | 0.00 | 0.00 | 66 | 1007.3 |
| 20260506184533 | 70 | 77 | 2.6 | 8.7 | 0.00 | 0.00 | 0.00 | 63 | 1007.3 |
| 20260506183032 | 70 | 288 | 1.7 | 10.4 | 0.00 | 0.00 | 0.00 | 60 | 1007.4 |
| 20260506181532 | 71 | 222 | 1.7 | 11.3 | 0.00 | 0.00 | 0.00 | 58 | 1007.4 |
| 20260506180030 | 72 | 250 | 1.7 | 6.1 | 0.00 | 0.00 | 0.00 | 58 | 1007.6 |
| 20260506174528 | 72 | 264 | 0.9 | 7.8 | 0.00 | 0.00 | 0.00 | 59 | 1007.8 |
| 20260506173026 | 72 | 251 | 0.9 | 7.8 | 0.00 | 0.00 | 0.00 | 60 | 1008.0 |
| 20260506171526 | 72 | 230 | 1.7 | 7.0 | 0.00 | 0.00 | 0.00 | 60 | 1007.9 |
| 20260506170025 | 71 | 251 | 2.6 | 9.6 | 0.00 | 0.00 | 0.00 | 61 | 1007.9 |
| 20260506164526 | 72 | 48 | 0.9 | 8.7 | 0.00 | 0.00 | 0.00 | 61 | 1008.2 |
| 20260506163020 | 72 | 259 | 0.9 | 8.7 | 0.00 | 0.00 | 0.00 | 60 | 1008.4 |
| 20260506161519 | 72 | 265 | 3.5 | 9.6 | 0.00 | 0.00 | 0.00 | 60 | 1008.6 |
| 20260506160018 | 71 | 226 | 1.7 | 9.6 | 0.00 | 0.00 | 0.00 | 60 | 1008.8 |
| 20260506154515 | 72 | 274 | 0.9 | 13.9 | 0.00 | 0.00 | 0.00 | 60 | 1009.1 |
| 20260506153014 | 72 | 225 | 2.6 | 10.4 | 0.00 | 0.00 | 0.00 | 59 | 1009.4 |
| 20260506151512 | 72 | 205 | 0.0 | 6.1 | 0.00 | 0.00 | 0.00 | 60 | 1009.4 |
| 20260506150009 | 71 | 333 | 3.5 | 12.2 | 0.00 | 0.00 | 0.00 | 61 | 1009.6 |
| 20260506144515 | 71 | 205 | 3.5 | 8.7 | 0.00 | 0.00 | 0.00 | 61 | 1009.5 |
| 20260506143004 | 70 | 269 | 2.6 | 7.0 | 0.00 | 0.00 | 0.00 | 65 | 1009.5 |
| 20260506141601 | 69 | 349 | 0.0 | 5.2 | 0.00 | 0.00 | 0.00 | 68 | 1009.4 |
| 20260506140057 | 67 | 207 | 1.7 | 6.1 | 0.00 | 0.00 | 0.00 | 69 | 1009.7 |
| 20260506134555 | 67 | 270 | 1.7 | 7.0 | 0.00 | 0.00 | 0.00 | 71 | 1009.6 |
| 20260506133056 | 66 | 277 | 2.6 | 9.6 | 0.00 | 0.00 | 0.00 | 72 | 1010.2 |
| 20260506131549 | 65 | 208 | 0.0 | 7.8 | 0.00 | 0.00 | 0.00 | 74 | 1010.2 |
| 20260506130050 | 65 | 207 | 0.0 | 8.7 | 0.00 | 0.00 | 0.00 | 75 | 1010.1 |
| 20260506124547 | 64 | 231 | 0.0 | 8.7 | 0.00 | 0.00 | 0.00 | 77 | 1010.3 |
| 20260506123047 | 63 | 239 | 2.6 | 8.7 | 0.00 | 0.00 | 0.00 | 78 | 1010.4 |
| 20260506121546 | 63 | 281 | 0.0 | 7.8 | 0.00 | 0.00 | 0.00 | 78 | 1010.2 |
| 20260506120045 | 62 | 275 | 0.9 | 7.8 | 0.00 | 0.00 | 0.00 | 79 | 1010.6 |
| 20260506114546 | 62 | 269 | 0.9 | 7.8 | 0.00 | 0.00 | 0.00 | 80 | 1010.5 |
| 20260506113044 | 62 | 235 | 3.5 | 9.6 | 0.00 | 0.00 | 0.00 | 79 | 1010.9 |
| 20260506111543 | 62 | 265 | 2.6 | 6.1 | 0.00 | 0.00 | 0.00 | 79 | 1010.7 |
| 20260506110043 | 62 | 285 | 0.9 | 7.8 | 0.00 | 0.00 | 0.00 | 79 | 1010.5 |
| 20260506104547 | 61 | 300 | 0.9 | 6.1 | 0.00 | 0.00 | 0.00 | 80 | 1010.6 |
| 20260506103041 | 61 | 225 | 0.9 | 8.7 | 0.00 | 0.00 | 0.00 | 80 | 1010.8 |
| 20260506101540 | 61 | 241 | 0.9 | 6.1 | 0.00 | 0.00 | 0.00 | 80 | 1010.7 |
| 20260506100038 | 61 | 210 | 0.9 | 5.2 | 0.00 | 0.00 | 0.00 | 80 | 1010.6 |
| 20260506094537 | 61 | 212 | 1.7 | 8.7 | 0.00 | 0.00 | 0.00 | 80 | 1010.4 |
| 20260506093040 | 61 | 185 | 0.9 | 5.2 | 0.00 | 0.00 | 0.00 | 79 | 1010.5 |
| 20260506091535 | 61 | 302 | 0.9 | 6.1 | 0.00 | 0.00 | 0.00 | 79 | 1010.4 |
| 20260506090033 | 62 | 208 | 0.0 | 5.2 | 0.00 | 0.00 | 0.00 | 78 | 1010.4 |
| 20260506084537 | 62 | 228 | 0.0 | 5.2 | 0.00 | 0.00 | 0.00 | 78 | 1010.4 |
| 20260506083031 | 62 | 257 | 0.0 | 6.1 | 0.00 | 0.00 | 0.00 | 77 | 1010.5 |
| 20260506081530 | 62 | 218 | 0.9 | 4.3 | 0.00 | 0.00 | 0.00 | 77 | 1010.4 |